This demonstration page uses our WeatherBlox Daily Observations layout. Learn more.

Left ArrowRight Arrow

Hourly Observations for May 7, 2017

Temp ( °F °C ) Dew Point ( °F °C ) Humidity (%) Winds ( mph kmh ) Pressure ( in mb ) Visibility ( mi km ) Precip ( " mm )
12:52 am 00:52 Clear 55 12.8 44 6.7 67 67 SE 3 6 29.94 1014 10 16 0.00 0.00
1:52 am 01:52 Clear 55 12.8 42 5.6 62 62 SE 6 9 29.94 1014 10 16 0.00 0.00
2:52 am 02:52 Clear 54 12.2 41 5 62 62 SE 8 13 29.94 1014 10 16 0.00 0.00
3:52 am 03:52 Clear 54 12.2 41 5 62 62 SE 9 15 29.95 1014 10 16 0.00 0.00
4:52 am 04:52 Clear 54 12.2 43 6.1 67 67 SSE 10 17 29.96 1015 10 16 0.00 0.00
5:52 am 05:52 Clear 53 11.7 45 7.2 74 74 SSE 10 17 29.97 1015 10 16 0.00 0.00
6:52 am 06:52 Sunny 54 12.2 46 7.8 75 75 SSE 9 15 29.99 1016 10 16 0.00 0.00
7:52 am 07:52 Sunny 59 15 47 8.3 64 64 SSE 12 19 30.01 1016 10 16 0.00 0.00
8:52 am 08:52 Sunny 63 17.2 47 8.3 56 56 SSE 15 24 30.02 1017 10 16 0.00 0.00
9:52 am 09:52 Sunny 66 18.9 48 8.9 52 52 SSE 13 20 30.03 1017 10 16 0.00 0.00
10:52 am 10:52 Sunny 70 21.1 50 10 49 49 SSE 9 15 30.03 1017 10 16 0.00 0.00
11:52 am 11:52 Sunny 72 22.2 51 10.6 48 48 SSE 6 9 30.02 1017 10 16 0.00 0.00
12:52 pm 12:52 Sunny 75 23.9 51 10.6 43 43 VRB 7 11 30.01 1016 10 16 0.00 0.00
1:52 pm 13:52 Sunny 76 24.4 51 10.6 42 42 S 5 7 30.00 1016 10 16 0.00 0.00
2:52 pm 14:52 Sunny 78 25.6 53 11.7 42 42 VRB 3 6 29.98 1015 10 16 0.00 0.00
3:52 pm 15:52 Sunny 79 26.1 56 13.3 45 45 SW 7 11 29.95 1014 10 16 0.00 0.00
4:52 pm 16:52 Sunny 80 26.7 56 13.3 44 44 SSW 3 6 29.93 1014 10 16 0.00 0.00
5:52 pm 17:52 Sunny 80 26.7 58 14.4 47 47 S 7 11 29.92 1013 10 16 0.00 0.00
6:52 pm 18:52 Sunny 79 26.1 57 13.9 47 47 SSE 3 6 29.91 1013 10 16 0.00 0.00
7:52 pm 19:52 Sunny 75 23.9 59 15 58 58 SSE 5 7 29.91 1013 10 16 0.00 0.00
8:52 pm 20:52 Mostly Cloudy 70 21.1 61 16.1 73 73 SSE 6 9 29.92 1013 10 16 0.00 0.00
9:52 pm 21:52 Mostly Clear 68 20 57 13.9 68 68 SE 8 13 29.94 1014 10 16 0.00 0.00
10:52 pm 22:52 Clear 68 20 57 13.9 68 68 SSE 9 15 29.96 1014 10 16 0.00 0.00
11:52 pm 23:52 Clear 67 19.4 56 13.3 68 68 SSE 8 13 29.96 1015 10 16 0.00 0.00

Powered by AerisWeather